Overview Statistics Trail Chart Weather Telemetry Raw packets
 

This is the latest recevied weather packets stored in our database for station/object K9MWD. If no packets are shown the sender has not sent any weather packets the latest 10 day(s).

<< 11 12 13 14 15 16 17 >>
Time Temp. Humidity Pressure Rain* Wind** Luminosity Snow
1788558313 37.78° C 43% 1011.8 hPa 0 mm - 510 W/m² -
1788558008 37.22° C 43% 1011.8 hPa 0 mm - 539 W/m² -
1788557706 37.22° C 43% 1011.7 hPa 0 mm - 573 W/m² -
1788557404 36.67° C 43% 1011.8 hPa 0 mm - 564 W/m² -
1788557102 36.11° C 44% 1011.8 hPa 0 mm - 569 W/m² -
1788556797 35.56° C 46% 1011.9 hPa 0 mm - 146 W/m² -
1788556492 36.11° C 45% 1012 hPa 0 mm - 149 W/m² -
1788556188 36.11° C 45% 1012.1 hPa 0 mm - 565 W/m² -
1788555886 37.22° C 44% 1011.9 hPa 0 mm - 606 W/m² -
1788555582 37.78° C 44% 1012.2 hPa 0 mm - 658 W/m² -
1788555278 37.78° C 43% 1012.2 hPa 0 mm - 691 W/m² -
1788554975 37.78° C 42% 1012.2 hPa 0 mm - 720 W/m² -
1788554671 37.78° C 42% 1012.2 hPa 0 mm - 775 W/m² -
1788554367 37.22° C 42% 1012.4 hPa 0 mm - 773 W/m² -
1788554064 37.22° C 41% 1012.5 hPa 0 mm - 751 W/m² -
1788553759 36.67° C 43% 1012.4 hPa 0 mm - 743 W/m² -
1788553455 37.22° C 42% 1012.4 hPa 0 mm - 771 W/m² -
1788553150 37.22° C 43% 1012.7 hPa 0 mm - 773 W/m² -
1788552845 36.67° C 43% 1012.7 hPa 0 mm - 793 W/m² -
1788552541 37.22° C 42% 1012.6 hPa 0 mm - 787 W/m² -
1788552239 37.22° C 43% 1012.7 hPa 0 mm - 836 W/m² -
1788551934 37.22° C 42% 1012.9 hPa 0 mm - 855 W/m² -
1788551632 35.56° C 44% 1012.8 hPa 0 mm - 325 W/m² -
1788551327 36.67° C 45% 1013.1 hPa 0 mm - 377 W/m² -
1788551027 37.22° C 42% 1013.2 hPa 0 mm - 863 W/m² -

* Rain latest hour (hover to see other rain measurements)
** Current wind speed in m/s (hover to see current wind gust speed)